Regional Weather Roundup
Issued by NWS

Home | Current Version | Previous Version | Text Only | Print | Product List | Glossary Off
Versions: 1 2 3 4 5 6 7 8 9 10 11 12 13 14 15 16 17 18 19 20 21 22 23 24 25 26 27 28 29 30 31 32 33 34 35 36 37 38 39 40 41 42 43 44 45 46 47 48 49 50

030
ASUS45 KBOU 081607
RWRCO

WEATHER ROUNDUP FOR COLORADO
NATIONAL WEATHER SERVICE DENVER/BOULDER CO
900 AM MST MON FEB 08 2016

NOTE: "FAIR" INDICATES FEW OR NO CLOUDS BELOW 12000 FEET WITH NO
SIGNIFICANT WEATHER AND/OR OBSTRUCTIONS TO VISIBILITY.

COZ001>005-013-030-031-081700-
...NORTHWEST COLORADO...

CITY           SKY/WX    TMP DP  RH WIND       PRES   REMARKS
CRAIG          CLOUDY    -1  -4  87 VRB3      30.61R
HAYDEN         CLOUDY    14   5  67 E5        30.59R WCI   6
MEEKER         CLOUDY    13   9  84 NW3       30.59R
MOUNT WERNER   NOT AVBL
STEAMBOAT SPGS CLOUDY    13   9  87 CALM      30.59R
WALDEN         CLOUDY    23  14  68 S8        30.51R WCI  14
$$

COZ006>008-011-081700-
...WEST CENTRAL VALLEYS...

CITY           SKY/WX    TMP DP  RH WIND       PRES   REMARKS
GRAND JUNCTION CLOUDY    20  16  84 SW3       30.61R
MONTROSE       CLOUDY    19  12  74 SE3       30.61S
EAGLE          SUNNY      9   5  85 CALM      30.65R
RIFLE          CLOUDY    15   9  76 E3        30.63R
DELTA          CLOUDY    24  17  75 E3        30.62S
NUCLA          CLOUDY    27  18  69 CALM      30.59F
$$

COZ017>023-064>068-081700-
...SOUTHWEST COLORADO...

CITY           SKY/WX    TMP DP  RH WIND       PRES   REMARKS
DURANGO        CLOUDY    18  13  80 E5        30.50R WCI  11
CORTEZ         CLOUDY    27  17  66 E3        30.50R
PAGOSA SPRINGS CLOUDY   N/A N/A N/A CALM      30.48S
TELLURIDE      CLOUDY    27  12  52 CALM      30.55R
WOLF CREEK PAS CLOUDY    28   9  43 N13G18    30.57R WCI  18
$$

COZ009-010-012-014-032>034-037-058>063-081700-
...CENTRAL COLORADO...

CITY           SKY/WX    TMP DP  RH WIND       PRES   REMARKS
ASPEN          CLOUDY    20  11  68 CALM      30.56R
BUENA VISTA    CLOUDY    33  15  47 NW22G29   30.44S WCI  21
COPPER MTN     CLOUDY    19  12  73 W10G16    30.53R WCI   8
BERTHOUD PASS  CLOUDY    10   1  67 NW30G43   30.46R WCI -12
COTTONWOOD PAS CLOUDY    34  12  40 CALM      30.46R
GUNNISON       CLOUDY    -8 -22  49 SE3       30.62R
KREMMLING      CLOUDY    18   9  68 CALM      30.57R
LEADVILLE      CLOUDY    20   9  62 N12       30.49S WCI   8
MONARCH PASS   CLOUDY    18  10  73 SW23G30   30.59F WCI   0
SALIDA         NOT AVBL
SUNLIGHT       CLOUDY    23  19  86 N7          N/A  WCI  15
WILKERSON PASS CLOUDY    27  12  54 NW20G38   30.43S WCI  13
$$

COZ069>075-081700-
...SAN LUIS VALLEY/SANGRE DE CRISTO MOUNTAINS...

CITY           SKY/WX    TMP DP  RH WIND       PRES   REMARKS
ALAMOSA        CLOUDY    24  12  60 CALM      30.48R
LA VETA PASS   CLOUDY    23  10  58 MISG      30.43R
SAGUACHE       CLOUDY    34  14  44 N17G24    30.48S WCI  23
$$

COZ035-036-038>040-081700-
...NORTHERN COLORADO FRONT RANGE...

CITY           SKY/WX    TMP DP  RH WIND       PRES   REMARKS
DENVER INTL AP CLOUDY    23  13  65 E3        30.38R
DMNS CITY PARK   N/A     31  16  55 SW6       30.40R WCI  25
AURORA         PTSUNNY   33  17  53 E6        30.39R WCI  27
FRONT RANGE AP MOSUNNY   21  12  68 CALM      30.39R
ERIE MUNI ARPT CLOUDY    26  19  73 CALM      30.40R
BOULDER MUN AP CLOUDY    30  19  64 CALM      30.39R
CENTENNIAL     CLOUDY    27  17  66 SE7       30.38R WCI  19
BROOMFIELD     MOSUNNY   30  19  64 CALM      30.39R
FORT COLLINS   CLOUDY    21  18  86 CALM      30.41R
LONGMONT       CLOUDY    28  17  64 E5        30.42R WCI  23
$$

COZ041-046-047-076>085-087-088-081700-
...PIKES PEAK/PALMER DIVIDE AND SOUTHERN FOOTHILLS...

CITY           SKY/WX    TMP DP  RH WIND       PRES   REMARKS
COLO. SPRINGS  CLOUDY    23  18  81 SW3       30.38R
A. F. ACADEMY  CLOUDY    36  18  48 N18       30.34R
SCHRIEVER AFB  NOT AVBL
ELLICOTT       NOT AVBL
FALCON         CLOUDY    34  17  50 CALM      30.38R
FORT CARSON    CLOUDY    23  19  85 CALM      30.38R
LIMON          CLOUDY    21  13  71 W10       30.39R WCI  10
MONUMENT HILL  CLOUDY    27  14  59 N3        30.39R
TRINIDAD       CLOUDY    28  18  66 SE6       30.40R WCI  22
$$

COZ042>045-048>051-090-091-081700-
...NORTHEAST COLORADO...

CITY           SKY/WX    TMP DP  RH WIND       PRES   REMARKS
GREELEY ARPT     N/A     19  16  86 CALM      30.42R
AKRON          CLOUDY    25  15  66 NW16      30.37S WCI  12
BURLINGTON     CLOUDY    27  16  63 NW26      30.37R WCI  12
WRAY           CLOUDY    28  15  58 W10       30.39R WCI  18
STERLING       CLOUDY    32  18  55 NW12      30.40R WCI  23
HOLYOKE        CLOUDY    34  18  51 NW23G30   30.36R WCI  22
FORT MORGAN    CLOUDY    26  17  67 W9        30.41R WCI  17
$$

COZ086-089-092>099-081700-
...SOUTHEAST COLORADO...

CITY           SKY/WX    TMP DP  RH WIND       PRES   REMARKS
PUEBLO         SUNNY     31  22  69 E3        30.43R
LA JUNTA       SUNNY     31  21  66 W9        30.43S WCI  23
LAMAR          SUNNY     32  21  64 W14       30.42R WCI  22
SPRINGFIELD      N/A     36  19  50 W14       30.42R
$$




USA.gov is the U.S. government's official web portal to all federal, state and local government web resources and services.